Theta_e
310 307 312 317 318 317 319 319 315 318 318 320 317 320 324 321 328 328 316 317 319 319 320 321 325 328 328 331 332 333 334 335 335 332 330 331 332 332 331 329 327 321 319 318 318 321 321 319 320
309 308 315 320 317 318 316 314 318 316 318 321 322 321 320 321 319 317 317 318 318 318 318 318 317 318 320 325 328 330 331 332 334 335 333 331 331 331 331 330 329 322 320 319 316 317 320 320 322
308 311 317 314 312 316 317 314 316 314 315 320 319 319 319 318 317 317 317 317 317 317 317 317 316 315 314 313 314 319 325 329 331 334 334 333 331 331 331 330 330 327 323 320 318 319 322 325 325
310 315 316 317 315 314 313 314 313 313 313 315 317 317 317 318 317 316 316 316 315 315 315 314 312 311 310 310 310 310 311 317 324 327 332 332 332 331 331 331 330 329 325 321 321 325 323 323 323
314 316 312 314 315 314 311 313 313 313 313 313 316 316 317 316 316 315 315 315 315 315 313 310 309 309 309 309 309 309 309 309 310 315 325 331 331 331 330 330 330 330 328 324 325 324 323 323 323
316 313 312 312 311 312 311 313 312 312 312 313 313 314 315 314 314 315 315 314 314 311 309 308 308 307 307 306 306 307 308 308 309 309 311 321 328 329 329 329 330 329 330 326 325 324 323 324 322
314 312 312 313 313 312 313 312 311 311 311 312 314 313 313 313 313 313 314 313 310 309 308 306 304 303 302 302 302 302 302 303 305 308 308 310 316 324 328 327 327 329 329 328 326 325 323 323 322
315 310 311 310 311 313 311 312 312 312 311 312 313 312 312 313 313 313 312 311 309 308 306 303 302 302 302 302 301 301 301 302 303 304 307 308 309 314 323 326 327 327 328 328 326 325 324 323 322
314 312 311 311 309 311 311 311 313 312 311 312 313 312 312 311 312 312 311 310 308 306 304 303 302 302 302 302 301 300 301 302 304 305 307 308 308 309 313 321 326 326 328 326 327 326 325 322 321
310 310 311 308 307 311 311 311 312 312 311 311 312 312 312 312 312 312 311 308 307 305 304 303 302 302 302 301 300 301 303 307 309 309 308 309 308 308 309 315 321 325 327 326 326 326 325 322 319
308 309 307 311 313 312 311 311 312 311 311 312 312 312 312 312 312 312 310 308 306 306 304 303 302 301 300 300 300 301 305 309 309 309 308 308 308 308 308 309 317 322 326 325 324 326 324 321 317
310 310 311 312 313 313 311 312 311 312 313 313 312 312 312 312 312 311 309 307 306 306 305 304 301 301 300 300 301 303 307 309 309 309 308 308 307 307 307 308 311 319 324 325 321 324 321 322 320
311 310 312 312 313 312 312 311 310 310 312 311 312 312 312 312 312 309 309 308 307 306 306 304 301 300 300 301 302 306 309 309 309 309 308 308 307 307 307 308 311 317 324 325 322 323 317 321 316
311 311 311 312 312 312 311 310 310 311 310 311 311 311 312 312 310 309 309 308 307 307 306 304 300 300 301 302 306 309 310 309 309 308 308 307 306 306 306 308 312 321 325 325 324 321 320 321 317
312 311 309 310 311 311 310 309 309 311 311 311 311 311 311 311 310 310 309 308 308 307 306 302 299 300 301 303 308 309 310 309 309 310 309 308 307 306 306 308 313 321 325 324 321 319 321 320 312
311 308 310 310 310 311 310 313 310 309 309 310 311 311 311 311 311 310 309 308 308 307 306 300 299 301 304 306 309 309 310 310 310 311 310 308 307 306 306 308 314 321 324 323 321 318 321 319 312
306 312 309 309 310 310 310 312 310 309 309 309 310 310 311 311 311 310 309 309 308 306 304 299 301 305 307 309 310 310 311 311 312 312 310 308 307 305 306 308 317 321 322 323 320 319 320 318 315
312 312 311 310 310 310 310 311 310 310 310 310 311 310 311 311 312 310 309 308 307 306 300 300 305 308 308 310 310 311 312 312 311 310 308 308 307 305 306 308 318 319 321 321 317 317 320 317 314
311 312 312 309 308 309 309 309 308 308 308 307 308 309 310 311 311 310 310 308 306 304 299 302 308 309 309 310 312 312 312 311 310 310 307 307 306 305 306 309 315 320 321 319 317 318 319 315 314
310 310 309 308 307 308 306 308 308 305 304 305 306 307 308 309 310 310 309 307 306 301 300 307 309 310 310 311 311 312 312 312 311 311 307 306 305 305 306 312 316 319 318 321 319 320 317 315 315
310 309 307 310 306 305 304 309 308 306 307 309 308 307 307 307 309 310 308 306 304 299 303 309 309 310 311 312 312 311 312 311 312 313 309 306 306 307 307 309 316 318 320 320 320 320 319 314 312
312 307 308 308 308 309 305 313 308 306 304 306 308 307 307 308 309 309 307 306 300 300 307 310 309 310 311 312 311 312 312 311 312 311 309 307 307 308 307 312 318 319 319 320 319 319 317 315 314
311 307 307 308 308 308 307 307 310 304 307 308 307 307 307 308 309 308 306 304 299 301 307 308 310 310 311 313 312 313 313 311 312 312 313 312 312 315 315 319 318 320 319 317 317 319 317 316 315
305 307 306 305 307 309 305 307 313 306 306 306 307 307 308 308 308 306 305 301 299 302 306 308 309 310 312 314 314 313 313 313 313 315 316 317 317 316 316 319 319 319 318 317 317 316 317 316 315
306 307 311 311 309 314 307 308 311 308 305 305 305 308 308 307 307 307 305 300 299 302 306 308 310 311 313 313 313 314 314 313 313 314 317 317 317 319 317 319 319 317 316 317 317 317 317 316 315
305 307 312 313 311 309 307 310 312 306 305 306 307 308 309 307 307 306 303 299 300 302 307 308 310 310 312 313 314 314 314 314 314 315 316 317 318 318 318 319 318 317 319 320 319 318 317 316 315
306 307 305 306 298 306 308 306 306 303 303 306 305 306 308 308 308 306 303 299 299 302 307 308 310 311 311 312 313 314 315 314 315 315 317 318 316 317 318 319 318 319 318 319 320 320 319 317 316
305 303 307 304 309 309 309 307 311 308 306 302 304 304 307 308 307 306 303 299 299 302 307 307 309 311 311 312 312 313 315 315 314 315 315 316 317 318 319 319 319 319 319 320 320 320 318 318 316
305 305 305 304 305 310 309 313 304 306 306 304 302 306 307 308 308 306 303 300 299 303 306 307 309 310 310 311 311 313 314 314 314 314 315 316 317 316 317 318 318 317 318 318 317 319 318 317 316
304 304 304 308 307 304 306 309 306 303 304 304 304 307 307 308 308 306 303 301 299 302 305 306 308 309 310 311 314 314 315 314 314 314 314 315 316 317 317 317 317 316 316 317 317 317 317 317 316
Wind_Speed
3 4 5 1 3 3 2 4 2 2 1 1 3 3 2 3 2 2 10 4 1 2 4 4 6 8 11 13 14 15 14 14 15 16 17 17 17 17 17 16 15 16 15 15 15 16 17 16 17
5 6 5 4 4 1 4 2 4 3 4 8 5 3 1 2 4 4 7 3 3 4 5 7 9 10 12 14 16 17 18 19 18 17 18 19 19 19 19 19 18 18 17 17 16 15 15 15 14
6 8 3 4 3 4 4 4 4 4 4 5 4 1 3 3 6 5 7 4 4 6 8 11 13 15 17 17 18 20 21 22 22 22 23 20 21 21 21 22 21 21 19 18 17 15 14 18 14
6 4 5 3 4 5 5 3 5 5 3 5 5 2 3 7 6 7 6 5 6 8 11 15 18 20 21 21 22 23 25 26 25 25 25 27 25 24 23 23 23 23 21 20 17 16 15 13 14
7 3 3 2 4 4 4 2 7 5 3 4 5 3 3 8 9 7 6 7 8 11 15 18 18 19 20 21 21 22 24 25 27 28 27 29 30 30 27 25 25 24 24 22 19 20 16 16 17
4 3 3 3 4 4 4 6 5 4 4 4 3 5 4 8 11 8 7 8 11 15 16 15 15 15 17 18 20 21 21 22 25 28 32 32 32 35 34 29 27 27 27 25 23 21 19 20 19
5 4 4 3 3 3 4 6 4 5 5 6 4 3 3 11 10 8 8 9 12 13 13 13 15 17 19 20 20 21 23 25 26 26 30 33 35 35 32 33 31 29 28 26 25 23 23 21 17
3 4 3 4 4 5 3 5 2 7 5 5 7 5 4 7 9 8 8 10 12 12 12 14 16 18 19 20 21 23 24 24 24 28 30 29 34 37 37 33 33 30 29 28 27 25 24 22 18
4 3 3 5 7 3 4 3 5 4 4 7 8 8 6 5 8 8 8 11 11 10 12 15 18 20 22 24 25 26 26 27 27 25 28 29 28 33 35 35 33 34 31 29 28 27 26 20 17
3 3 7 3 5 4 3 5 3 4 6 8 11 14 12 10 9 9 10 11 10 10 13 17 20 22 24 26 28 29 29 28 26 27 27 27 26 28 31 33 32 26 33 29 28 29 29 22 17
4 5 3 4 5 4 3 3 6 4 6 16 11 8 14 13 11 11 11 11 11 12 15 19 22 24 27 29 31 30 29 26 20 20 21 22 24 24 27 30 27 29 30 29 30 30 23 22 18
2 4 4 2 5 3 3 3 5 15 10 7 8 9 11 14 13 11 11 11 12 14 16 20 24 26 27 30 31 30 27 20 18 18 19 20 22 22 23 25 24 28 31 34 32 29 29 23 20
4 1 5 6 7 8 7 11 9 18 21 16 14 13 12 13 13 12 12 11 13 15 17 22 25 27 30 32 32 30 21 18 19 19 18 20 21 21 21 21 23 23 26 33 35 32 18 19 20
3 5 7 6 6 6 4 4 1 5 2 11 21 17 15 15 13 13 13 12 13 15 19 23 26 28 31 33 31 22 16 18 18 17 17 18 19 19 20 19 23 24 22 34 28 26 28 25 21
2 5 4 3 4 3 3 6 9 17 13 10 13 18 18 16 15 13 13 13 13 15 21 24 27 29 31 31 24 17 16 18 18 18 17 16 18 19 18 19 23 18 29 35 30 26 30 23 21
1 3 4 1 3 2 1 8 4 5 8 13 14 17 19 18 16 14 13 13 13 17 22 24 27 29 31 28 17 16 15 18 20 18 17 17 15 16 18 19 26 16 31 33 36 34 35 22 23
6 3 2 6 3 1 1 7 4 4 6 13 16 19 21 19 18 15 13 13 13 17 22 24 26 29 29 18 16 16 15 18 16 17 15 13 14 12 17 21 26 19 31 37 36 31 33 32 28
3 2 3 4 2 1 4 19 18 22 20 25 24 21 22 21 18 14 14 13 13 17 20 23 25 26 20 17 16 18 18 18 16 17 16 13 10 9 17 22 28 18 28 33 33 30 32 36 34
5 2 4 4 1 3 7 14 21 20 21 23 27 31 29 24 17 15 14 12 11 15 19 21 24 19 18 17 19 22 20 18 15 14 14 8 6 9 16 23 24 26 28 34 36 35 37 36 35
2 0 5 4 0 1 6 22 21 7 6 12 19 23 27 26 21 15 13 10 10 14 17 20 18 17 17 19 18 18 20 17 12 14 12 3 2 6 13 28 25 23 26 29 29 37 41 37 35
2 4 3 4 6 1 7 9 5 1 4 5 9 11 12 21 22 16 12 8 9 12 15 18 14 14 15 20 20 15 16 16 17 16 10 3 4 5 11 21 27 20 27 31 28 36 34 42 35
2 2 3 1 4 3 4 6 8 3 7 3 4 5 8 16 19 14 11 6 7 9 12 16 13 14 16 19 18 16 18 17 17 16 8 5 5 8 16 21 11 32 38 28 24 31 31 40 40
3 2 3 2 2 3 2 2 8 4 4 2 4 5 10 15 18 15 10 6 5 6 8 13 14 12 12 14 15 14 14 15 16 19 18 19 18 20 26 20 27 24 33 33 26 32 42 34 41
7 4 4 3 2 2 2 3 6 3 4 2 2 9 14 17 17 14 10 6 3 5 7 10 12 10 11 11 14 12 13 14 13 14 17 14 17 19 22 23 22 26 30 23 18 26 31 34 35
3 4 3 4 2 5 2 1 10 5 6 4 7 15 16 17 17 14 10 6 2 3 6 7 10 9 10 10 12 9 10 13 10 15 15 19 17 21 21 18 23 28 18 15 15 27 35 36 37
5 6 5 6 2 4 3 6 6 5 2 9 5 11 17 19 17 14 11 7 3 2 3 6 9 8 7 8 10 10 10 10 9 8 14 16 19 17 17 17 23 18 11 13 17 25 33 34 34
6 5 3 6 2 2 4 7 9 4 5 3 8 11 20 21 19 16 12 8 4 1 2 4 8 7 6 2 7 8 8 9 8 9 11 16 17 18 16 17 15 17 16 13 14 21 25 36 31
3 4 3 2 3 4 4 5 5 3 6 8 7 15 18 20 20 18 14 10 6 2 2 3 5 8 5 4 6 7 7 8 10 10 10 13 14 15 16 16 18 17 15 16 19 28 23 30 32
3 3 2 2 4 5 1 5 6 4 3 8 9 16 19 22 21 18 15 12 9 5 4 4 3 7 9 8 9 8 7 5 9 14 14 11 10 10 14 13 15 12 14 17 14 25 27 28 30
3 7 8 4 5 2 2 6 1 4 3 3 9 16 17 20 20 18 16 14 11 8 6 7 6 3 8 8 10 10 11 10 9 12 12 15 14 12 11 15 14 12 13 15 18 24 26 25 25
Wind_Direction
241 202 190 140 58 57 276 254 176 204 211 322 161 169 187 121 170 202 149 153 198 297 297 297 284 277 277 274 277 277 274 268 267 265 258 258 252 250 247 246 238 228 229 234 236 238 243 238 232
195 160 144 94 98 106 261 242 211 197 156 118 111 116 167 210 163 168 183 212 249 269 287 298 299 293 287 281 279 277 277 270 264 258 258 255 253 249 247 245 238 231 228 234 236 232 229 230 235
167 150 120 90 109 185 219 214 174 169 176 173 142 199 182 184 177 184 196 224 260 288 301 301 298 297 296 293 288 282 276 272 266 263 260 254 249 248 245 242 241 232 229 230 229 229 215 224 230
150 130 69 96 222 247 214 190 186 160 145 187 168 199 210 197 183 193 205 235 268 294 300 302 304 303 302 298 290 282 277 276 276 272 265 262 255 245 243 240 238 232 229 224 228 222 222 214 220
144 98 76 84 256 257 256 226 188 194 178 172 168 207 216 202 207 212 237 266 293 302 307 308 310 312 310 305 300 293 288 283 276 272 266 262 257 258 244 238 236 232 228 225 220 215 222 213 219
100 94 73 236 237 256 265 215 196 201 195 184 188 172 222 203 212 231 255 280 299 305 311 318 324 326 322 320 318 313 307 295 280 271 265 260 258 252 256 243 236 232 229 224 214 215 214 212 225
124 100 198 224 254 277 225 178 221 202 186 225 193 172 219 202 214 233 255 284 300 311 321 327 329 319 315 315 312 306 299 294 290 283 271 263 258 255 256 253 241 234 228 224 217 212 208 214 226
147 92 150 228 216 259 177 168 227 211 219 187 188 212 221 211 219 239 269 295 307 314 320 322 314 317 318 316 313 309 308 304 296 287 282 272 261 256 253 254 249 236 227 223 218 214 212 214 223
151 68 227 234 170 232 188 173 202 229 206 201 212 225 244 239 230 254 278 300 301 302 310 313 316 319 321 316 316 317 312 308 302 289 283 282 269 256 251 250 249 234 225 221 217 214 209 214 220
116 142 225 211 188 213 207 192 216 221 210 230 230 234 239 239 241 258 281 287 285 293 312 319 319 322 319 320 320 320 317 314 305 294 284 274 272 262 248 246 245 244 223 219 215 213 206 202 201
159 211 211 237 225 218 214 239 222 211 242 232 225 250 234 233 241 257 274 283 285 305 319 319 320 320 322 324 323 321 318 317 312 303 296 278 269 262 253 244 238 236 224 215 212 215 201 202 195
211 239 232 248 218 204 215 244 247 223 240 256 259 248 235 232 242 259 273 279 293 307 316 319 319 320 323 323 324 322 320 318 317 314 307 293 275 262 254 243 234 232 225 218 218 217 180 191 192
202 254 238 246 243 247 253 246 247 256 256 254 253 250 245 235 245 254 267 281 292 307 316 318 320 322 325 327 328 322 321 322 318 313 310 301 288 264 246 236 219 225 225 213 208 209 178 186 185
185 247 258 268 246 247 240 253 307 248 228 239 238 241 236 237 241 249 264 276 294 308 316 318 321 325 326 330 328 324 323 325 323 321 312 297 289 283 243 225 214 210 219 201 196 200 183 183 180
243 301 308 234 237 242 281 263 233 258 263 261 236 232 234 238 237 251 263 278 293 310 317 320 323 326 327 328 325 324 325 321 318 319 321 303 288 289 235 217 206 204 208 200 199 194 186 170 168
34 55 336 205 198 281 259 272 281 307 253 249 239 232 231 234 240 249 261 277 295 310 315 321 326 326 328 326 322 320 319 319 307 309 312 311 287 287 220 208 193 178 186 193 175 179 178 164 161
11 257 271 320 219 330 102 277 273 279 242 251 242 236 234 235 237 246 259 274 291 307 316 322 328 330 330 331 329 325 330 331 326 313 299 296 284 281 208 197 189 167 173 176 171 174 166 160 161
232 299 263 253 319 5 259 262 268 261 260 255 254 248 240 238 240 245 255 268 289 308 317 326 333 337 347 343 335 345 346 344 335 328 321 295 266 254 204 191 191 146 168 177 168 170 169 163 160
127 169 264 266 338 288 254 277 280 277 245 249 249 250 242 239 237 239 251 263 288 310 319 330 340 351 351 347 354 359 358 354 348 338 343 296 242 228 201 188 201 147 167 172 172 176 166 155 159
141 212 273 278 321 252 321 293 283 282 246 249 255 254 246 236 227 229 242 257 294 312 328 337 348 354 353 356 1 359 0 360 345 353 2 352 183 199 187 179 185 163 163 180 186 181 160 161 163
186 179 231 247 319 70 321 290 323 276 274 259 271 266 238 220 211 216 226 251 296 315 339 347 359 359 359 1 5 13 9 5 7 12 13 49 115 188 186 184 177 185 176 183 189 181 189 163 168
248 189 161 20 31 274 15 284 305 316 304 256 266 233 198 186 192 205 213 246 292 329 353 358 1 354 355 12 29 13 22 24 27 24 31 72 119 140 143 156 124 156 182 189 176 189 180 168 168
196 126 120 99 88 357 335 72 270 344 314 242 216 186 171 171 185 195 200 230 286 338 351 5 7 353 2 26 37 26 35 54 38 71 65 81 96 111 134 143 164 159 159 156 153 183 174 171 173
148 94 58 61 81 345 219 141 282 229 208 203 189 181 164 168 178 189 198 211 273 331 340 358 6 10 23 41 45 35 43 69 76 75 85 89 109 132 153 158 156 165 159 165 169 169 178 186 180
100 88 334 340 11 227 119 50 249 246 217 195 186 193 183 181 184 192 200 198 214 313 347 9 14 24 46 48 48 53 49 71 91 106 76 108 113 125 138 155 161 161 168 180 168 174 185 186 189
177 166 166 226 226 286 54 234 252 206 272 216 200 201 194 193 195 198 204 201 197 308 12 25 29 35 71 54 65 79 82 79 92 94 112 122 123 138 136 155 164 173 158 160 163 178 188 191 189
180 193 163 108 62 33 226 275 285 231 256 184 195 200 202 200 200 199 205 206 195 253 71 51 32 42 83 83 86 89 109 113 91 104 118 136 132 135 144 152 170 178 193 195 185 185 192 202 195
161 166 94 358 187 251 274 277 245 268 239 207 207 213 208 204 202 202 205 209 198 191 157 97 43 47 71 94 120 112 132 136 129 121 117 131 139 148 155 158 166 172 173 181 190 188 191 185 188
136 204 72 125 171 180 261 261 213 248 263 207 212 209 204 203 203 203 205 207 203 189 167 166 134 63 58 94 106 122 137 132 117 137 131 131 141 149 161 164 175 171 162 164 176 195 183 182 187
188 191 178 156 209 241 142 274 215 249 318 212 212 213 209 209 205 205 209 212 207 195 172 169 165 114 68 96 113 117 126 135 125 134 134 138 137 152 166 165 166 172 154 165 172 168 171 186 171